Volver al catálogo

ELECTRON KICK STAGE R/B

ActivoSSO
NORAD 61226·ROCKET BODY·🇺🇸 United States

Lanzado Sep 20, 2024 desde Rocket Lab Launch Complex 1

Loading…

Próximos Pases (próximas 24 horas)

TLE

ActualizadoSource: Space-Track

Época: Sep 14, 2026, 06:52 UTC

1 61226U 24172G   26257.28634814  .00002916  00000-0  24001-3 0  9999
2 61226  98.0243  10.3211 0046529 170.1307 190.0840 14.99115924108048

Sigue ELECTRON KICK STAGE R/B en tiempo real con AllMySat

Download on the App Store